Location: Garos
(43.5000°N, 0.4667°W)
Time: 03:53:53
(UTC+00:00)

Cosmos 2360 Rocket - Pass Details

Date: 03 February 2023
Orbit: 832 x 846 km, 71.0° (Epoch: 26 March)

Event Time Altitude Azimuth Distance (km) Brightness Sun altitude
Rises 18:01:05 0° 182° (S) 3,369 5.5 -8.7°
Reaches altitude 10° 18:03:37 10° 175° (S) 2,441 4.7 -9.1°
Maximum altitude 18:08:50 41° 106° (ESE) 1,197 2.6 -10.0°
Drops below altitude 10° 18:14:05 10° 38° (NE) 2,466 4.2 -10.9°
Enters shadow 18:15:28 - 34° (NE) 2,968 4.6 -11.2°
